| time (UTC) | temp F | wind direction | speed MPH | gust MPH | rain 1hr in | rain 24hr in | rain mn in | humidity % | barometer mb |
| 20260505151605 | 61 | 5 | 8.0 | 23.0 | 0.00 | 0.00 | 0.00 | 84 | 1002.4 |
| 20260505151105 | 62 | 18 | 10.0 | 23.0 | 0.00 | 0.00 | 0.00 | 83 | 1002.1 |
| 20260505150105 | 64 | 21 | 9.0 | 20.0 | 0.00 | 0.00 | 0.00 | 82 | 1001.7 |
| 20260505140605 | 73 | 109 | 0.0 | 1.0 | 0.00 | 0.00 | 0.00 | 78 | 1000.2 |
| 20260505124105 | 69 | 43 | 0.0 | 0.0 | 0.00 | 0.00 | 0.00 | 83 | 999.7 |
| 20260505123604 | 69 | 43 | 0.0 | 0.0 | 0.00 | 0.00 | 0.00 | 83 | 999.6 |
| 20260505123105 | 69 | 43 | 0.0 | 0.0 | 0.00 | 0.00 | 0.00 | 83 | 999.7 |
| 20260505122605 | 69 | 43 | 0.0 | 0.0 | 0.00 | 0.00 | 0.00 | 83 | 999.6 |
| 20260505122105 | 69 | 43 | 0.0 | 0.0 | 0.00 | 0.00 | 0.00 | 83 | 999.3 |
| 20260505121605 | 69 | 350 | 0.0 | 3.0 | 0.00 | 0.00 | 0.00 | 82 | 999.3 |
| 20260505121105 | 69 | 49 | 0.0 | 5.0 | 0.00 | 0.00 | 0.00 | 82 | 999.3 |
| 20260505120105 | 69 | 26 | 3.0 | 7.0 | 0.00 | 0.00 | 0.00 | 82 | 999.1 |
| 20260505115605 | 69 | 7 | 1.0 | 5.0 | 0.00 | 0.00 | 0.00 | 82 | 999.1 |
| 20260505115104 | 69 | 2 | 2.0 | 9.0 | 0.00 | 0.00 | 0.00 | 82 | 999.0 |
| 20260505114605 | 69 | 350 | 4.0 | 9.0 | 0.00 | 0.00 | 0.00 | 81 | 998.9 |
| 20260505114105 | 69 | 21 | 3.0 | 12.0 | 0.00 | 0.00 | 0.00 | 81 | 998.6 |
| 20260505113605 | 70 | 227 | 5.0 | 13.0 | 0.00 | 0.00 | 0.00 | 80 | 998.1 |
| 20260505113105 | 70 | 199 | 7.0 | 13.0 | 0.00 | 0.00 | 0.00 | 80 | 997.8 |
| 20260505112105 | 70 | 197 | 9.0 | 18.0 | 0.00 | 0.00 | 0.00 | 79 | 997.5 |
| 20260505111605 | 70 | 203 | 10.0 | 13.0 | 0.00 | 0.00 | 0.00 | 79 | 997.4 |
| 20260505111105 | 70 | 193 | 9.0 | 14.0 | 0.00 | 0.00 | 0.00 | 79 | 997.3 |
| 20260505110605 | 71 | 195 | 10.0 | 20.0 | 0.00 | 0.00 | 0.00 | 78 | 997.4 |
| 20260505110105 | 71 | 187 | 10.0 | 24.0 | 0.00 | 0.00 | 0.00 | 78 | 997.4 |
| 20260505102104 | 72 | 185 | 15.0 | 21.0 | 0.00 | 0.00 | 0.00 | 77 | 996.9 |
| 20260505101605 | 72 | 189 | 14.0 | 20.0 | 0.00 | 0.00 | 0.00 | 77 | 997.0 |
| 20260505101105 | 72 | 190 | 14.0 | 20.0 | 0.00 | 0.00 | 0.00 | 77 | 997.0 |
| 20260505100605 | 72 | 187 | 13.0 | 20.0 | 0.00 | 0.00 | 0.00 | 77 | 997.0 |
| 20260505100105 | 72 | 193 | 13.0 | 21.0 | 0.00 | 0.00 | 0.00 | 77 | 997.0 |
| 20260505095605 | 72 | 193 | 16.0 | 22.0 | 0.00 | 0.00 | 0.00 | 77 | 997.0 |
| 20260505095105 | 72 | 199 | 13.0 | 22.0 | 0.00 | 0.00 | 0.00 | 77 | 996.9 |
| 20260505094604 | 72 | 191 | 14.0 | 20.0 | 0.00 | 0.00 | 0.00 | 78 | 996.9 |
| 20260505094104 | 72 | 190 | 12.0 | 20.0 | 0.00 | 0.00 | 0.00 | 78 | 997.0 |
| 20260505093605 | 72 | 188 | 12.0 | 20.0 | 0.00 | 0.00 | 0.00 | 78 | 997.0 |
| 20260505093104 | 72 | 192 | 13.0 | 24.0 | 0.00 | 0.00 | 0.00 | 77 | 996.9 |
| 20260505092605 | 72 | 185 | 13.0 | 24.0 | 0.00 | 0.00 | 0.00 | 77 | 996.9 |
| 20260505092105 | 72 | 191 | 16.0 | 21.0 | 0.00 | 0.00 | 0.00 | 77 | 996.9 |
| 20260505091605 | 72 | 185 | 14.0 | 21.0 | 0.00 | 0.00 | 0.00 | 77 | 996.8 |
| 20260505091104 | 72 | 186 | 14.0 | 22.0 | 0.00 | 0.00 | 0.00 | 77 | 996.9 |
| 20260505090605 | 72 | 187 | 14.0 | 22.0 | 0.00 | 0.00 | 0.00 | 77 | 997.0 |
| 20260505090105 | 72 | 183 | 14.0 | 21.0 | 0.00 | 0.00 | 0.00 | 78 | 997.1 |
| 20260505085105 | 72 | 182 | 14.0 | 26.0 | 0.00 | 0.00 | 0.00 | 77 | 997.2 |
| 20260505084605 | 72 | 188 | 14.0 | 26.0 | 0.00 | 0.00 | 0.00 | 78 | 997.2 |
| 20260505083604 | 72 | 183 | 14.0 | 21.0 | 0.00 | 0.00 | 0.00 | 78 | 997.3 |
| 20260505083105 | 72 | 182 | 14.0 | 21.0 | 0.00 | 0.00 | 0.00 | 78 | 997.3 |
| 20260505082105 | 72 | 183 | 14.0 | 20.0 | 0.00 | 0.00 | 0.00 | 78 | 997.4 |
| 20260505081605 | 72 | 187 | 14.0 | 20.0 | 0.00 | 0.00 | 0.00 | 78 | 997.5 |
| 20260505081105 | 72 | 185 | 13.0 | 21.0 | 0.00 | 0.00 | 0.00 | 78 | 997.6 |
| 20260505080105 | 72 | 186 | 13.0 | 23.0 | 0.00 | 0.00 | 0.00 | 78 | 997.6 |
| 20260505075604 | 72 | 191 | 14.0 | 22.0 | 0.00 | 0.00 | 0.00 | 78 | 997.5 |
| 20260505075104 | 72 | 187 | 16.0 | 22.0 | 0.00 | 0.00 | 0.00 | 78 | 997.6 |
| 20260505074605 | 72 | 186 | 16.0 | 22.0 | 0.00 | 0.00 | 0.00 | 78 | 997.7 |
| 20260505074104 | 72 | 190 | 14.0 | 21.0 | 0.00 | 0.00 | 0.00 | 78 | 997.8 |
| 20260505073104 | 72 | 185 | 15.0 | 24.0 | 0.00 | 0.00 | 0.00 | 78 | 997.8 |
| 20260505072605 | 72 | 181 | 16.0 | 24.0 | 0.00 | 0.00 | 0.00 | 78 | 997.9 |
| 20260505072105 | 72 | 182 | 14.0 | 23.0 | 0.00 | 0.00 | 0.00 | 78 | 998.0 |
| 20260505071604 | 72 | 185 | 16.0 | 23.0 | 0.00 | 0.00 | 0.00 | 78 | 998.0 |
| 20260505071105 | 72 | 181 | 14.0 | 24.0 | 0.00 | 0.00 | 0.00 | 78 | 998.1 |
| 20260505070605 | 72 | 184 | 14.0 | 24.0 | 0.00 | 0.00 | 0.00 | 77 | 998.2 |
| 20260505070104 | 72 | 182 | 16.0 | 24.0 | 0.00 | 0.00 | 0.00 | 77 | 998.2 |
| 20260505065604 | 72 | 199 | 14.0 | 23.0 | 0.00 | 0.00 | 0.00 | 77 | 998.3 |
| 20260505065104 | 72 | 176 | 14.0 | 23.0 | 0.00 | 0.00 | 0.00 | 77 | 998.4 |
| 20260505064605 | 73 | 183 | 16.0 | 25.0 | 0.00 | 0.00 | 0.00 | 77 | 998.5 |
| 20260505064105 | 73 | 179 | 17.0 | 25.0 | 0.00 | 0.00 | 0.00 | 77 | 998.4 |
| 20260505063605 | 73 | 190 | 16.0 | 25.0 | 0.00 | 0.00 | 0.00 | 77 | 998.5 |
| 20260505063105 | 73 | 179 | 16.0 | 25.0 | 0.00 | 0.00 | 0.00 | 77 | 998.5 |
| 20260505062604 | 73 | 186 | 16.0 | 25.0 | 0.00 | 0.00 | 0.00 | 76 | 998.5 |
| 20260505062104 | 73 | 182 | 14.0 | 23.0 | 0.00 | 0.00 | 0.00 | 76 | 998.5 |
| 20260505061605 | 73 | 179 | 15.0 | 23.0 | 0.00 | 0.00 | 0.00 | 76 | 998.6 |
| 20260505060605 | 73 | 188 | 14.0 | 25.0 | 0.00 | 0.00 | 0.00 | 76 | 998.6 |
| 20260505060106 | 73 | 185 | 15.0 | 25.0 | 0.00 | 0.00 | 0.00 | 76 | 998.7 |
| 20260505055605 | 73 | 181 | 16.0 | 23.0 | 0.00 | 0.00 | 0.00 | 76 | 998.7 |
| 20260505055105 | 73 | 189 | 15.0 | 24.0 | 0.00 | 0.00 | 0.00 | 76 | 998.8 |
| 20260505054605 | 73 | 179 | 14.0 | 24.0 | 0.00 | 0.00 | 0.00 | 76 | 998.9 |
| 20260505054104 | 73 | 183 | 15.0 | 23.0 | 0.00 | 0.00 | 0.00 | 76 | 998.9 |
| 20260505053604 | 73 | 173 | 16.0 | 25.0 | 0.00 | 0.00 | 0.00 | 75 | 999.0 |
| 20260505053105 | 73 | 171 | 14.0 | 25.0 | 0.00 | 0.00 | 0.00 | 75 | 999.0 |
| 20260505052605 | 73 | 177 | 16.0 | 24.0 | 0.00 | 0.00 | 0.00 | 75 | 999.0 |
| 20260505052105 | 73 | 183 | 13.0 | 24.0 | 0.00 | 0.00 | 0.00 | 75 | 999.1 |
| 20260505051605 | 73 | 188 | 13.0 | 24.0 | 0.00 | 0.00 | 0.00 | 75 | 999.1 |
| 20260505050604 | 74 | 175 | 14.0 | 22.0 | 0.00 | 0.00 | 0.00 | 75 | 999.4 |
| 20260505041605 | 74 | 159 | 15.0 | 21.0 | 0.00 | 0.00 | 0.00 | 75 | 999.6 |
| 20260505041104 | 74 | 173 | 11.0 | 23.0 | 0.00 | 0.00 | 0.00 | 74 | 999.6 |
| 20260505040604 | 74 | 178 | 14.0 | 23.0 | 0.00 | 0.00 | 0.00 | 74 | 999.8 |
| 20260505035605 | 74 | 170 | 12.0 | 20.0 | 0.00 | 0.00 | 0.00 | 74 | 999.8 |
| 20260505034605 | 74 | 177 | 14.0 | 23.0 | 0.00 | 0.00 | 0.00 | 73 | 999.7 |
| 20260505033605 | 74 | 175 | 12.0 | 23.0 | 0.00 | 0.00 | 0.00 | 73 | 999.7 |
| 20260505033105 | 75 | 172 | 13.0 | 22.0 | 0.00 | 0.00 | 0.00 | 73 | 999.8 |
| 20260505032104 | 75 | 163 | 16.0 | 24.0 | 0.00 | 0.00 | 0.00 | 72 | 999.6 |
| 20260505031105 | 75 | 173 | 16.0 | 25.0 | 0.00 | 0.00 | 0.00 | 72 | 999.5 |
| 20260505030605 | 75 | 176 | 15.0 | 25.0 | 0.00 | 0.00 | 0.00 | 71 | 999.5 |
| 20260505025605 | 76 | 165 | 15.0 | 25.0 | 0.00 | 0.00 | 0.00 | 71 | 999.4 |
| 20260505025105 | 76 | 164 | 14.0 | 25.0 | 0.00 | 0.00 | 0.00 | 70 | 999.5 |
| 20260505024605 | 76 | 161 | 17.0 | 25.0 | 0.00 | 0.00 | 0.00 | 70 | 999.2 |
| 20260505024104 | 76 | 175 | 15.0 | 23.0 | 0.00 | 0.00 | 0.00 | 70 | 999.1 |
| 20260505022604 | 76 | 165 | 16.0 | 28.0 | 0.00 | 0.00 | 0.00 | 69 | 999.3 |
| 20260505022105 | 76 | 169 | 16.0 | 24.0 | 0.00 | 0.00 | 0.00 | 68 | 999.1 |
| 20260505020605 | 77 | 159 | 17.0 | 25.0 | 0.00 | 0.00 | 0.00 | 67 | 998.8 |
| 20260505015605 | 77 | 172 | 15.0 | 26.0 | 0.00 | 0.00 | 0.00 | 67 | 999.0 |
| 20260505014604 | 78 | 160 | 18.0 | 26.0 | 0.00 | 0.00 | 0.00 | 66 | 999.1 |
| 20260505014104 | 78 | 163 | 17.0 | 23.0 | 0.00 | 0.00 | 0.00 | 66 | 999.0 |
| 20260505013605 | 78 | 156 | 15.0 | 23.0 | 0.00 | 0.00 | 0.00 | 65 | 998.8 |
| 20260505013105 | 78 | 175 | 16.0 | 23.0 | 0.00 | 0.00 | 0.00 | 64 | 998.9 |
| 20260505012605 | 78 | 161 | 14.0 | 23.0 | 0.00 | 0.00 | 0.00 | 64 | 999.1 |
| 20260505010604 | 79 | 172 | 18.0 | 26.0 | 0.00 | 0.00 | 0.00 | 63 | 999.0 |
| 20260505010105 | 79 | 156 | 17.0 | 26.0 | 0.00 | 0.00 | 0.00 | 63 | 999.2 |
| 20260505005605 | 79 | 178 | 15.0 | 26.0 | 0.00 | 0.00 | 0.00 | 63 | 999.3 |
| 20260505004104 | 79 | 158 | 17.0 | 29.0 | 0.00 | 0.00 | 0.00 | 62 | 999.2 |
| 20260505003605 | 80 | 158 | 17.0 | 29.0 | 0.00 | 0.00 | 0.00 | 62 | 999.2 |
| 20260505002604 | 80 | 182 | 20.0 | 30.0 | 0.00 | 0.00 | 0.00 | 61 | 999.2 |
| 20260505002104 | 80 | 165 | 18.0 | 28.0 | 0.00 | 0.00 | 0.00 | 61 | 999.2 |
| 20260505001605 | 81 | 179 | 18.0 | 26.0 | 0.00 | 0.00 | 0.00 | 60 | 999.3 |
| 20260505001105 | 81 | 159 | 18.0 | 28.0 | 0.00 | 0.00 | 0.00 | 61 | 999.3 |
| 20260505000104 | 81 | 177 | 17.0 | 26.0 | 0.00 | 0.00 | 0.00 | 61 | 999.5 |
| 20260504235605 | 81 | 176 | 17.0 | 26.0 | 0.00 | 0.00 | 0.00 | 60 | 999.7 |
| 20260504235105 | 81 | 181 | 17.0 | 28.0 | 0.00 | 0.00 | 0.00 | 60 | 999.7 |
| 20260504234605 | 81 | 176 | 20.0 | 28.0 | 0.00 | 0.00 | 0.00 | 59 | 999.7 |
| 20260504234104 | 82 | 169 | 17.0 | 29.0 | 0.00 | 0.00 | 0.00 | 58 | 999.8 |
| 20260504233605 | 82 | 169 | 18.0 | 29.0 | 0.00 | 0.00 | 0.00 | 58 | 999.8 |
| 20260504233105 | 83 | 166 | 17.0 | 26.0 | 0.00 | 0.00 | 0.00 | 57 | 999.8 |
| 20260504232604 | 82 | 167 | 17.0 | 30.0 | 0.00 | 0.00 | 0.00 | 57 | 999.8 |
| 20260504232104 | 82 | 176 | 16.0 | 30.0 | 0.00 | 0.00 | 0.00 | 57 | 999.8 |
| 20260504231604 | 82 | 158 | 17.0 | 30.0 | 0.00 | 0.00 | 0.00 | 58 | 999.8 |
| 20260504231104 | 82 | 167 | 13.0 | 21.0 | 0.00 | 0.00 | 0.00 | 57 | 999.8 |
| 20260504230604 | 83 | 157 | 13.0 | 23.0 | 0.00 | 0.00 | 0.00 | 56 | 1000.0 |
| 20260504230104 | 83 | 176 | 16.0 | 26.0 | 0.00 | 0.00 | 0.00 | 56 | 1000.0 |
| 20260504225605 | 83 | 160 | 14.0 | 26.0 | 0.00 | 0.00 | 0.00 | 57 | 1000.1 |
| 20260504225104 | 83 | 165 | 14.0 | 26.0 | 0.00 | 0.00 | 0.00 | 56 | 1000.2 |
| 20260504224605 | 83 | 169 | 17.0 | 26.0 | 0.00 | 0.00 | 0.00 | 55 | 1000.2 |
| 20260504224104 | 82 | 186 | 16.0 | 24.0 | 0.00 | 0.00 | 0.00 | 56 | 1000.2 |
| 20260504223604 | 82 | 172 | 16.0 | 26.0 | 0.00 | 0.00 | 0.00 | 55 | 1000.3 |
| 20260504223104 | 82 | 161 | 17.0 | 26.0 | 0.00 | 0.00 | 0.00 | 55 | 1000.4 |
| 20260504222604 | 82 | 171 | 17.0 | 25.0 | 0.00 | 0.00 | 0.00 | 54 | 1000.5 |
| 20260504222104 | 82 | 176 | 17.0 | 25.0 | 0.00 | 0.00 | 0.00 | 54 | 1000.4 |
| 20260504221604 | 82 | 179 | 14.0 | 26.0 | 0.00 | 0.00 | 0.00 | 55 | 1000.5 |
| 20260504221104 | 82 | 169 | 15.0 | 26.0 | 0.00 | 0.00 | 0.00 | 55 | 1000.6 |
| 20260504220604 | 82 | 173 | 18.0 | 26.0 | 0.00 | 0.00 | 0.00 | 53 | 1000.6 |
| 20260504220105 | 82 | 179 | 17.0 | 26.0 | 0.00 | 0.00 | 0.00 | 53 | 1000.7 |
| 20260504215104 | 82 | 166 | 16.0 | 26.0 | 0.00 | 0.00 | 0.00 | 54 | 1000.8 |
| 20260504214604 | 82 | 187 | 12.0 | 25.0 | 0.00 | 0.00 | 0.00 | 55 | 1001.0 |
| 20260504213604 | 82 | 187 | 18.0 | 26.0 | 0.00 | 0.00 | 0.00 | 54 | 1001.0 |
| 20260504213105 | 82 | 167 | 16.0 | 26.0 | 0.00 | 0.00 | 0.00 | 53 | 1001.1 |
| 20260504212104 | 82 | 177 | 16.0 | 26.0 | 0.00 | 0.00 | 0.00 | 54 | 1001.3 |
| 20260504211104 | 82 | 178 | 17.0 | 28.0 | 0.00 | 0.00 | 0.00 | 52 | 1001.3 |
| 20260504210605 | 82 | 189 | 16.0 | 35.0 | 0.00 | 0.00 | 0.00 | 53 | 1001.5 |
| 20260504205604 | 82 | 181 | 20.0 | 35.0 | 0.00 | 0.00 | 0.00 | 52 | 1001.6 |
| 20260504204604 | 82 | 180 | 20.0 | 29.0 | 0.00 | 0.00 | 0.00 | 52 | 1001.9 |
| 20260504204104 | 82 | 190 | 21.0 | 28.0 | 0.00 | 0.00 | 0.00 | 51 | 1002.1 |
| 20260504203604 | 83 | 190 | 16.0 | 26.0 | 0.00 | 0.00 | 0.00 | 50 | 1002.2 |
| 20260504201604 | 83 | 200 | 17.0 | 29.0 | 0.00 | 0.00 | 0.00 | 49 | 1002.2 |
| 20260504201105 | 82 | 197 | 17.0 | 29.0 | 0.00 | 0.00 | 0.00 | 50 | 1002.3 |
| 20260504200104 | 82 | 196 | 20.0 | 29.0 | 0.00 | 0.00 | 0.00 | 49 | 1002.4 |
| 20260504195604 | 83 | 203 | 16.0 | 29.0 | 0.00 | 0.00 | 0.00 | 49 | 1002.6 |
| 20260504195104 | 82 | 182 | 17.0 | 26.0 | 0.00 | 0.00 | 0.00 | 51 | 1002.7 |
| 20260504194605 | 82 | 179 | 18.0 | 28.0 | 0.00 | 0.00 | 0.00 | 50 | 1002.8 |
| 20260504194104 | 82 | 184 | 20.0 | 28.0 | 0.00 | 0.00 | 0.00 | 49 | 1002.9 |
| 20260504193604 | 83 | 196 | 17.0 | 28.0 | 0.00 | 0.00 | 0.00 | 48 | 1003.0 |
| 20260504192604 | 83 | 180 | 18.0 | 28.0 | 0.00 | 0.00 | 0.00 | 48 | 1003.2 |
| 20260504192104 | 83 | 188 | 17.0 | 24.0 | 0.00 | 0.00 | 0.00 | 48 | 1003.2 |
| 20260504191605 | 82 | 188 | 17.0 | 28.0 | 0.00 | 0.00 | 0.00 | 49 | 1003.3 |
| 20260504191104 | 82 | 184 | 20.0 | 28.0 | 0.00 | 0.00 | 0.00 | 48 | 1003.4 |
| 20260504190604 | 82 | 203 | 19.0 | 28.0 | 0.00 | 0.00 | 0.00 | 47 | 1003.4 |
| 20260504184604 | 82 | 186 | 16.0 | 29.0 | 0.00 | 0.00 | 0.00 | 48 | 1003.5 |
| 20260504184104 | 81 | 182 | 16.0 | 23.0 | 0.00 | 0.00 | 0.00 | 50 | 1003.5 |
| 20260504183604 | 81 | 193 | 17.0 | 23.0 | 0.00 | 0.00 | 0.00 | 49 | 1003.7 |
| 20260504183104 | 81 | 180 | 15.0 | 23.0 | 0.00 | 0.00 | 0.00 | 51 | 1003.8 |
| 20260504182604 | 80 | 201 | 16.0 | 23.0 | 0.00 | 0.00 | 0.00 | 51 | 1004.0 |
| 20260504182104 | 80 | 182 | 16.0 | 23.0 | 0.00 | 0.00 | 0.00 | 49 | 1004.2 |
| 20260504181604 | 80 | 171 | 16.0 | 24.0 | 0.00 | 0.00 | 0.00 | 51 | 1004.2 |
| 20260504181105 | 80 | 181 | 15.0 | 26.0 | 0.00 | 0.00 | 0.00 | 51 | 1004.1 |
| 20260504180604 | 79 | 194 | 20.0 | 26.0 | 0.00 | 0.00 | 0.00 | 50 | 1004.3 |
| 20260504180104 | 79 | 173 | 15.0 | 28.0 | 0.00 | 0.00 | 0.00 | 53 | 1004.3 |
| 20260504175604 | 79 | 188 | 17.0 | 28.0 | 0.00 | 0.00 | 0.00 | 51 | 1004.4 |
| 20260504175104 | 80 | 188 | 17.0 | 23.0 | 0.00 | 0.00 | 0.00 | 51 | 1004.5 |
| 20260504174604 | 79 | 208 | 16.0 | 25.0 | 0.00 | 0.00 | 0.00 | 50 | 1004.6 |
| 20260504174104 | 79 | 201 | 15.0 | 25.0 | 0.00 | 0.00 | 0.00 | 51 | 1004.7 |
| 20260504173604 | 79 | 175 | 18.0 | 24.0 | 0.00 | 0.00 | 0.00 | 50 | 1004.7 |
| 20260504172104 | 78 | 198 | 14.0 | 26.0 | 0.00 | 0.00 | 0.00 | 51 | 1004.9 |
| 20260504171604 | 78 | 205 | 17.0 | 26.0 | 0.00 | 0.00 | 0.00 | 50 | 1004.9 |
| 20260504171104 | 78 | 210 | 17.0 | 26.0 | 0.00 | 0.00 | 0.00 | 51 | 1004.9 |
| 20260504170604 | 78 | 198 | 17.0 | 26.0 | 0.00 | 0.00 | 0.00 | 51 | 1005.1 |
| 20260504160105 | 74 | 200 | 20.0 | 25.0 | 0.00 | 0.00 | 0.00 | 54 | 1005.4 |